Weather History for Calvi, France

Change the Weather History Date:

Thursday, December 13, 2012

  Actual Average Record
Temperature  
Mean Temperature 45 °F -  
Max Temperature 55 °F 55 °F 64 °F (1996)
Min Temperature 35 °F 43 °F 35 °F (2001)
Degree Days  
Heating Degree Days 20    
Moisture  
Dew Point 33 °F    
Average Humidity 59    
Maximum Humidity 81    
Minimum Humidity 38    
Precipitation  
Precipitation 0.00 in - - ()
Sea Level Pressure  
Sea Level Pressure 30.06 in    
Wind  
Wind Speed 4 mph ()    
Max Wind Speed 7 mph    
Max Gust Speed -    
Visibility 6.2 miles    
Events      
Averages and records for this station are not official NWS values.
T = Trace of Precipitation, MM = Missing Value Source: Averaged Metar Reports

Daily Weather History Graph

Daily Weather History Graph

Search for Another Location

Airport:

Trip Planner

Search our weather history database for the weather conditions in past years. The results will help you decide how hot, cold, wet, or windy it might be!

Date:

Astronomy

Dec. 13, 2012 Rise Set
Actual Time 7:46 AM CET 4:52 PM CET
Civil Twilight 7:14 AM CET 5:24 PM CET
Nautical Twilight 6:38 AM CET 5:59 PM CET
Astronomical Twilight 6:04 AM CET 6:33 PM CET
Moon 7:37 AM CET (12/13) 5:16 PM CET (12/13)
Length of Visible Light 10h 09m
Length of Day
9h 05m
Waxing Crescent, 0% of the Moon is Illuminated
Dec 13
Waxing Crescent
Dec 20
First Quarter
Dec 28
Full
Jan 5
Last Quarter
Jan 11
New

Hourly Weather History & Observations

Time (CET) Temp. Windchill Dew Point Humidity Pressure Visibility Wind Dir Wind Speed Gust Speed Precip Events Conditions
7:00 AM 39.2 °F 34.2 °F 28.4 °F 65% 30.06 in 6.2 mi SSW 6.9 mph - N/A   Mostly Cloudy
7:30 AM 35.6 °F 30.7 °F 28.4 °F 75% 30.06 in 6.2 mi SSE 5.8 mph - N/A   Mostly Cloudy
8:00 AM 35.6 °F 32.8 °F 30.2 °F 81% 30.06 in 6.2 mi South 3.5 mph - N/A   Mostly Cloudy
8:30 AM 37.4 °F 32.8 °F 30.2 °F 75% 30.06 in 6.2 mi South 5.8 mph - N/A   Scattered Clouds
9:00 AM 41.0 °F 37.1 °F 32.0 °F 70% 30.06 in 6.2 mi SSW 5.8 mph - N/A   Mostly Cloudy
9:30 AM 46.4 °F 42.9 °F 33.8 °F 62% 30.09 in 6.2 mi South 6.9 mph - N/A   Scattered Clouds
10:00 AM 46.4 °F 44.3 °F 35.6 °F 66% 30.09 in 6.2 mi South 4.6 mph - N/A   Mostly Cloudy
10:30 AM 50.0 °F - 35.6 °F 58% 30.09 in 6.2 mi South 4.6 mph - N/A   Mostly Cloudy
11:00 AM 51.8 °F - 30.2 °F 44% 30.09 in 6.2 mi Variable 3.5 mph - N/A   Mostly Cloudy
11:30 AM 53.6 °F - 30.2 °F 41% 30.09 in 6.2 mi Variable 2.3 mph - N/A   Mostly Cloudy
12:00 PM 53.6 °F - 30.2 °F 41% 30.06 in 6.2 mi Variable 1.2 mph - N/A   Mostly Cloudy
12:30 PM 55.4 °F - 30.2 °F 38% 30.06 in 6.2 mi Variable 2.3 mph - N/A   Mostly Cloudy
1:00 PM 53.6 °F - 32.0 °F 44% 30.06 in 6.2 mi Variable 3.5 mph - N/A   Mostly Cloudy
1:30 PM 53.6 °F - 32.0 °F 44% 30.04 in 6.2 mi NNW 3.5 mph - N/A   Mostly Cloudy
2:00 PM 53.6 °F - 30.2 °F 41% 30.04 in 6.2 mi Variable 2.3 mph - N/A   Mostly Cloudy
2:30 PM 53.6 °F - 32.0 °F 44% 30.04 in 6.2 mi Calm Calm - N/A   Mostly Cloudy
3:00 PM 51.8 °F - 33.8 °F 50% 30.04 in 6.2 mi Calm Calm - N/A   Mostly Cloudy
3:30 PM 50.0 °F - 39.2 °F 66% 30.04 in 6.2 mi South 4.6 mph - N/A   Mostly Cloudy
4:00 PM 48.2 °F - 39.2 °F 71% 30.04 in 6.2 mi South 3.5 mph - N/A   Mostly Cloudy
4:30 PM 48.2 °F - 39.2 °F 71% 30.04 in 6.2 mi South 5.8 mph - N/A   Mostly Cloudy
5:00 PM 46.4 °F 43.5 °F 39.2 °F 76% 30.04 in 6.2 mi SSW 5.8 mph - N/A   Mostly Cloudy
5:30 PM 46.4 °F 44.3 °F 37.4 °F 71% 30.04 in 6.2 mi South 4.6 mph - N/A   Mostly Cloudy